BREEZE-M DEB (TANK), 42751

Orbit data source: Space-Track

BREEZE-M DEB (TANK), 42751 is space debris in HEO originally from a launch on Thu, 08 Jun 2017 UTC launched from the Tyuratam Missile And Space Complex (TTMTR). Debris objects in space refer to the collection of defunct objects orbiting the Earth. Examples of debris include non-operational satellites, rocket bodies, and fragments generated from explosions, collisions, or faulty payload assembly.

Loading next visibility...
BREEZE-M DEB (TANK) details
Identifier
42751, 2017-032C
Orbit
HEO
Last TLE update12 hours ago
Origin
Flag of CISKhrunichev (CIS)
ManufacturerKhrunichev
MissionSpacecraft
Bus & MotorBRIZ TANK, Unknown motor
Mass~1,000 kg wet, 1,000 kg dry
Launch date (UTC)
2017-06-08 (8 years ago)
Launch vehicleUnknown
Launch site
Tyuratam Missile And Space Complex (TTMTR)
Object type
Payload
Rocket body
Debris
Shape & HBRTorus, 4 m
Radar Cross Section8.218 m², Large (>1 m²)

Expand to show TLE details & history

TLE from 12 hours ago
0 BREEZE-M DEB (TANK)
1 42751U 17032C   24361.11111432  .00010299  00000-0  18264-2 0  9996
2 42751  49.6815  89.9960 4569909 151.9662 242.9300  6.33531306171860
Epoch: 2024-12-26T02:40Z
Definitive object data (Epoch: 2024-12-26T02:40:00.277Z)
Latitude0.00006°
Longitude-45.1039°
Altitude9,979.513 km
Speed4.054 km/s
True Right ascension05h 59m 58s
True Declination0° 00' 00"
Sunlit
Object was in daylight at TLE epoch
Visualization TLE readout
Latitude39.07299°
Longitude-2.29968°
Altitude3,946.777 km
Speed6.706 km/s
Apparent Right ascension06h 35m 06s
Apparent Declination15° 40' 06"
Sunlit
Object is in full shadow
Visualization observer readout
Local Sidereal Time14:09:33
Azimuth297.264° NW
Elevation-7.039°
Doppler factor1
Orbital elements
Apogee altitude11,598.278 km
Perigee altitude321.532 km
Semi-major axis12,338.042 km
Eccentricity0.4569909
Inclination49.6815°
RAAN89.996°
Arg. of periapsis151.9662°
True anomaly208.08547°
Mean anomaly242.93°
Eccentric anomaly224.55856°
Mean motion1.5837 °/min
BSTAR0.0018264
Orbital period227.32 mins
Loading maneuver chart data...
Loading historical data...
Loading historical data...
Loading historical data...
Loading historical data...
Loading historical data...
Loading historical data...
Loading historical data...
Other satellites on launch #32 in the year 2017 (2017-06-08 UTC)

BREEZE-M DEB (TANK) Visibility forecast

Observer location: undefined°, undefined

Span
Click to sort rows by Start time (UTC) header in descending order
Start Az.
Max El. time (UTC)
Max El. Az.
Max El.
End time (UTC)
End Az.
10 mins2024-12-26 15:00:39.891Z303.059° NW2024-12-26 15:08:39.891Z50.25° ENE41.569°2024-12-26 15:10:39.891Z104.313° ESE
81 mins2024-12-27 04:36:39.891Z165.619° S2024-12-27 05:35:39.891Z121.033° SE28.747°2024-12-27 05:57:39.891Z71.387° E
69 mins2024-12-27 08:47:39.891Z227.826° WSW2024-12-27 09:45:39.891Z318.436° NNW44.918°2024-12-27 09:56:39.891Z56.639° ENE
15 mins2024-12-27 13:36:39.891Z294.725° NW2024-12-27 13:48:39.891Z12.147° NNE35.539°2024-12-27 13:51:39.891Z71.795° E
|